Location: Hodgeman County Ambulance
(38.0844°N, 99.8949°W)
Time: 00:34:22
(UTC+00:00)

Cosmos 1428 Rocket - Pass Details

Date: 27 October 2020
Orbit: 948 x 988 km, 82.9° (Epoch: 04 December)

Event Time Altitude Azimuth Distance (km) Brightness Sun altitude
Rises 11:59:00 0° 193° (SSW) 3,668 7.4 -12.7°
Reaches altitude 10° 12:01:32 10° 196° (SSW) 2,719 6.7 -12.3°
Maximum altitude 12:07:43 66° 278° (W) 1,058 4.5 -11.0°
Drops below altitude 10° 12:13:54 10° 1° (N) 2,708 6.8 -9.8°
Sets 12:16:25 0° 4° (N) 3,652 7.5 -9.4°
